YBBNYBHM

Guest
Details From YBBN - Brisbane Intl
To YBHM - Hamilton I.
Flight Number -
Tags decoded
Created
Modified
Stats Distance 493 nm / 913 km
Max Altitude 0 ft / 0 m
Waypoints 8
Social Downloads 0
Likes 0
Share VATSIM

Download

Looking for another format? Having issues loading an existing format? Contact us
Advertisement - Login to hide

Notes

Requested: YBBN GRAEM PLUGG HBAWG AMOCO SHABY YBPI GOSVU BHMSM YBHM Unmatched points: AMOCO GOSVU

Route

YBBN GRAEM PLUGG HBAWG SHABY YBPI BHMSM YBHM

ID Type Via Altitude Latitude Longitude Leg Dist Tot Dist Heading (true) Name
O YBBN APT - 0 ft / 0 m -27.37571˚ 153.12771˚ - 0 nm - Brisbane Intl
GRAEM FIX - 0 ft / 0 m -27.31554˚ 153.16809˚ 4 nm 4 nm 31° / 31° -
PLUGG FIX - 0 ft / 0 m -27.16445˚ 153.19441˚ 9 nm 13 nm 9° / 9° -
HBAWG FIX - 0 ft / 0 m -25.15248˚ 152.72486˚ 123 nm 136 nm 348° / 348° -
SHABY FIX - 0 ft / 0 m -22.68528˚ 150.83647˚ 180 nm 317 nm 325° / 325° -
YBPI APT - 0 ft / 0 m -20.80325˚ 149.27878˚ 142 nm 460 nm 322° / 323° Brampton Island
BHMSM FIX - 0 ft / 0 m -20.39421˚ 148.98115˚ 29 nm 489 nm 326° / 326° -
O YBHM APT - 0 ft / 0 m -20.35748˚ 148.95164˚ 2 nm 492 nm 323° / 323° Hamilton I.

Altitude Profile

Advertisement - Login to hide

Weather


0- 5 10 15 20 25 30 35+ Temperature / ° C

Clouds and Precipitation
Forecast for 2018-06-24 18:00 UTC. Updated 5 hours ago

Ground ~20,000 ft ~40,000 ft Winds

YBBN

Details ICAO YBBN (BNE)
Name Brisbane Intl
Region Australia
Timezone Australia/Brisbane (UTC+10.0)
Stats Elevation 12 ft / 4 m (AMSL)
Location -27.375714° 153.127710°
Runways 2
Magnetic Variation 10.987° E

METAR

YBBN 242030Z 20009KT CAVOK 12/07 Q1026

Decode

TAF

TAF YBBN 241714Z 2418/2524 21007KT 9999 -SHRA SCT030 SCT070 FM250300 12012KT 9999 -SHRA SCT030 SCT050 FM251000 17010KT 9999 -SHRA SCT030 BKN040 INTER 2514/2524 3000 SHRA BKN012

Decode

Departure Runways

ID Width Length Bearing (true) Bearing (mag) Surface Threshold Offset Overrun Length
01 148 ft / 45 m 11,805 ft / 3,598 m 26.93° 15.94° Asphalt 197 ft / 60 m 0 ft / 0 m
14 98 ft / 30 m 5,787 ft / 1,764 m 145.66° 134.67° Asphalt 197 ft / 60 m 0 ft / 0 m
19 148 ft / 45 m 11,805 ft / 3,598 m 206.92° 195.93° Asphalt 0 ft / 0 m 0 ft / 0 m
32 98 ft / 30 m 5,787 ft / 1,764 m 325.66° 314.67° Asphalt 197 ft / 60 m 0 ft / 0 m

YBHM

Details ICAO YBHM (HTI)
Name Hamilton I.
Region Australia
Timezone Australia/Lindeman (UTC+10.0)
Stats Elevation 14 ft / 4 m (AMSL)
Location -20.357481° 148.951639°
Runways 1
Magnetic Variation 8.149° E

METAR

YBHM 242030Z AUTO 15018KT 9999 // SCT031 19/16 Q1021

Decode

TAF

TAF AMD YBHM 241751Z 2418/2506 14020KT 9999 SCT022 SCT030

Decode

Destination Runways

ID Width Length Bearing (true) Bearing (mag) Surface Threshold Offset Overrun Length
14 148 ft / 45 m 5,792 ft / 1,765 m 143.04° 134.89° Asphalt 0 ft / 0 m 0 ft / 0 m
32 148 ft / 45 m 5,792 ft / 1,765 m 323.03° 314.88° Asphalt 0 ft / 0 m 0 ft / 0 m

Popular Alternatives